This demonstration page uses our WeatherBlox Daily Observations layout. Learn more.

Hourly Observations for May 22, 2019

Temp ( °F °C ) Dew Point ( °F °C ) Humidity (%) Winds ( mph kmh ) Pressure ( in mb ) Visibility ( mi km ) Precip ( " mm )
12:15 am 00:15 Clear 54 12 50 10 88 88 NW 3 6 30.15 1021 10 16.09344 0 0
12:35 am 00:35 Clear 54 12 50 10 88 88 Calm 30.15 1021 10 16.09344 0 0
12:55 am 00:55 Clear 54 12 50 10 88 88 Calm 30.18 1022 10 16.09344 0 0
1:15 am 01:15 Clear 52 11 50 10 94 94 Calm 30.21 1023 10 16.09344 0 0
1:35 am 01:35 Clear 52 11 50 10 94 94 Calm 30.21 1023 10 16.09344 0 0
1:55 am 01:55 Clear 52 11 50 10 94 94 Calm 30.21 1023 10 16.09344 0 0
2:15 am 02:15 Clear 52 11 50 10 94 94 N 3 6 30.24 1024 10 16.09344 0 0
2:35 am 02:35 Clear 54 12 48 9 82 82 N 3 6 30.21 1023 10 16.09344 0 0
2:55 am 02:55 Clear 54 12 48 9 82 82 NE 3 6 30.21 1023 10 16.09344 0 0
3:15 am 03:15 Clear 55 13 46 8 72 72 NNE 5 7 30.21 1023 10 16.09344 0 0
3:35 am 03:35 Clear 55 13 48 9 77 77 NNE 6 9 30.21 1023 10 16.09344 0 0
3:55 am 03:55 Clear 55 13 48 9 77 77 NNE 6 9 30.21 1023 10 16.09344 0 0
4:15 am 04:15 Clear 55 13 48 9 77 77 NNE 3 6 30.21 1023 10 16.09344 0 0
4:35 am 04:35 Clear 54 12 48 9 82 82 N 5 7 30.24 1024 10 16.09344 0 0
4:55 am 04:55 Clear 54 12 48 9 82 82 NNE 5 7 30.24 1024 10 16.09344 0 0
5:15 am 05:15 Clear 54 12 48 9 82 82 N 5 7 30.24 1024 10 16.09344 0 0
5:35 am 05:35 Clear 50 10 48 9 94 94 Calm 30.27 1025 10 16.09344 0 0
5:55 am 05:55 Sunny 52 11 48 9 88 88 Calm 30.27 1025 10 16.09344 0 0
6:15 am 06:15 Sunny 50 10 46 8 88 88 Calm 30.3 1026 10 16.09344 0 0
6:35 am 06:35 Sunny 52 11 50 10 94 94 Calm 30.3 1026 10 16.09344 0 0
6:55 am 06:55 Sunny 54 12 50 10 88 88 Calm 30.3 1026 10 16.09344 0 0
7:15 am 07:15 Partly Cloudy 55 13 50 10 82 82 Calm 30.27 1025 10 16.09344 0 0
7:35 am 07:35 Mostly Cloudy 57 14 50 10 77 77 Calm 30.3 1026 10 16.09344 0 0
7:55 am 07:55 Cloudy 59 15 48 9 68 68 NNE 3 6 30.3 1026 10 16.09344 0 0
8:15 am 08:15 Mostly Cloudy 59 15 46 8 63 63 Calm 30.3 1026 10 16.09344 0 0
8:35 am 08:35 Partly Cloudy 61 16 46 8 59 59 Calm 30.3 1026 10 16.09344 0 0
8:55 am 08:55 Partly Cloudy 63 17 45 7 52 52 ESE 3 6 30.3 1026 10 16.09344 0 0
9:15 am 09:15 Partly Cloudy 63 17 45 7 52 52 NE 3 6 30.3 1026 10 16.09344 0 0
9:35 am 09:35 Mostly Cloudy 63 17 45 7 52 52 E 3 6 30.3 1026 10 16.09344 0 0
9:55 am 09:55 Cloudy 63 17 45 7 52 52 NE 3 6 30.3 1026 10 16.09344 0 0
10:15 am 10:15 Mostly Cloudy 63 17 46 8 56 56 Calm 30.3 1026 10 16.09344 0 0
10:35 am 10:35 Partly Cloudy 64 18 45 7 49 49 SE 6 9 30.3 1026 10 16.09344 0 0
11:15 am 11:15 Sunny 64 18 46 8 52 52 S 3 6 30.3 1026 10 16.09344 0 0
11:35 am 11:35 Sunny 66 19 45 7 46 46 SE 6 9 30.3 1026 10 16.09344 0 0
11:55 am 11:55 Sunny 68 20 43 6 40 40 ESE 5 7 30.3 1026 10 16.09344 0 0
12:15 pm 12:15 Sunny 68 20 45 7 43 43 SE 3 6 30.3 1026 10 16.09344 0 0
12:35 pm 12:35 Sunny 70 21 45 7 40 40 SSE 7 11 30.3 1026 10 16.09344 0 0
12:55 pm 12:55 Sunny 70 21 45 7 40 40 Calm 30.3 1026 10 16.09344 0 0
1:15 pm 13:15 Sunny 70 21 46 8 43 43 S 3 6 30.27 1025 10 16.09344 0 0
1:35 pm 13:35 Sunny 70 21 43 6 38 38 SSE 5 7 30.27 1025 10 16.09344 0 0
1:55 pm 13:55 Sunny 70 21 45 7 40 40 SSE 5 7 30.27 1025 10 16.09344 0 0
2:15 pm 14:15 Sunny 72 22 46 8 41 41 S 7 11 30.27 1025 10 16.09344 0 0
2:35 pm 14:35 Sunny 72 22 46 8 41 41 S 10 17 30.27 1025 10 16.09344 0 0
2:55 pm 14:55 Sunny 72 22 45 7 38 38 SE 3 6 30.27 1025 10 16.09344 0 0
3:15 pm 15:15 Sunny 72 22 46 8 41 41 SSW 7 11 30.27 1025 10 16.09344 0 0
3:35 pm 15:35 Sunny 73 23 48 9 41 41 SSW 5 7 30.27 1025 10 16.09344 0 0
3:55 pm 15:55 Sunny 73 23 48 9 41 41 SW 6 9 30.27 1025 10 16.09344 0 0
4:15 pm 16:15 Sunny 72 22 48 9 44 44 S 8 13 30.24 1024 10 16.09344 0 0
4:35 pm 16:35 Sunny 73 23 50 10 44 44 S 8 13 30.24 1024 10 16.09344 0 0
4:55 pm 16:55 Sunny 73 23 50 10 44 44 SE 6 9 30.24 1024 10 16.09344 0 0
5:15 pm 17:15 Sunny 73 23 52 11 47 47 S 3 6 30.24 1024 10 16.09344 0 0
5:35 pm 17:35 Sunny 73 23 52 11 47 47 S 9 15 30.24 1024 10 16.09344 0 0
5:55 pm 17:55 Sunny 73 23 52 11 47 47 S 8 13 30.24 1024 10 16.09344 0 0
6:15 pm 18:15 Sunny 73 23 52 11 47 47 S 9 15 30.21 1023 10 16.09344 0 0
6:35 pm 18:35 Sunny 73 23 52 11 47 47 SSE 8 13 30.21 1023 10 16.09344 0 0
6:55 pm 18:55 Sunny 72 22 52 11 50 50 SSE 8 13 30.21 1023 10 16.09344 0 0
7:35 pm 19:35 Sunny 70 21 52 11 53 53 SSE 9 15 30.24 1024 10 16.09344 0 0
7:55 pm 19:55 Sunny 70 21 52 11 53 53 SSE 7 11 30.24 1024 10 16.09344 0 0
8:15 pm 20:15 Sunny 70 21 52 11 53 53 SSE 7 11 30.24 1024 10 16.09344 0 0
8:35 pm 20:35 Clear 70 21 52 11 53 53 SSE 8 13 30.24 1024 10 16.09344 0 0
8:55 pm 20:55 Clear 68 20 52 11 56 56 SSE 10 17 30.24 1024 10 16.09344 0 0
9:15 pm 21:15 Partly Cloudy 68 20 52 11 56 56 S 7 11 30.24 1024 10 16.09344 0 0
9:35 pm 21:35 Mostly Cloudy 68 20 52 11 56 56 SSE 7 11 30.24 1024 10 16.09344 0 0
9:55 pm 21:55 Cloudy 68 20 52 11 56 56 S 7 11 30.24 1024 10 16.09344 0 0
10:15 pm 22:15 Mostly Cloudy 68 20 52 11 56 56 S 6 9 30.27 1025 10 16.09344 0 0
10:35 pm 22:35 Mostly Cloudy 68 20 52 11 56 56 S 8 13 30.24 1024 10 16.09344 0 0
10:55 pm 22:55 Mostly Cloudy 66 19 52 11 60 60 S 6 9 30.24 1024 10 16.09344 0 0
11:15 pm 23:15 Clear 64 18 54 12 68 68 S 5 7 30.24 1024 10 16.09344 0 0
11:35 pm 23:35 Clear 64 18 54 12 68 68 S 7 11 30.24 1024 10 16.09344 0 0
11:55 pm 23:55 Clear 63 17 54 12 73 73 SSW 3 6 30.24 1024 10 16.09344 0 0

Powered by AerisWeather